Theta_e
306 306 306 307 307 307 308 308 308 309 310 311 312 313 313 314 313 312 318 321 313 306 305 307 306 301 301 299 295 301 299 298 297 291 291 289 288 291 289 291 290 287 285 284 286 283 279 298 298 290 293 297 297 299
306 306 306 306 306 307 307 308 308 308 309 310 311 312 313 313 313 312 312 315 316 310 307 312 310 310 308 307 302 303 300 298 300 294 293 293 289 291 288 283 295 286 289 284 284 283 294 297 296 298 299 296 298 297
306 306 306 306 306 307 307 307 308 308 308 309 310 312 313 313 313 312 313 316 312 310 309 306 304 310 311 310 312 299 301 305 301 301 295 293 290 293 287 289 292 296 298 289 290 291 293 297 299 301 300 298 299 299
305 305 305 306 306 306 307 307 308 308 308 309 310 311 313 313 312 312 313 318 310 309 303 303 312 309 313 311 311 309 307 309 307 302 295 294 290 296 288 291 290 293 293 291 290 293 297 298 298 298 298 299 299 300
304 305 305 305 306 306 306 307 307 308 308 309 310 311 312 312 311 311 315 319 314 308 302 301 308 310 311 310 309 307 307 306 303 300 295 291 296 295 294 292 289 295 292 289 287 296 293 293 297 299 297 298 301 299
304 304 305 305 305 305 306 306 307 308 308 309 310 311 311 311 310 313 311 316 315 315 308 300 309 310 311 310 309 308 306 305 302 297 297 297 301 296 290 286 294 298 299 298 294 298 296 297 299 302 299 299 302 300
304 304 305 305 305 305 306 306 307 308 308 308 309 309 310 310 311 310 306 312 312 318 309 301 300 307 311 310 307 306 308 305 304 301 297 298 297 300 292 285 295 298 299 299 300 299 296 301 298 302 302 305 303 301
303 304 304 304 305 305 306 306 307 307 307 308 308 309 310 311 310 311 317 313 312 313 312 298 298 300 309 301 299 307 303 304 303 299 301 297 298 296 285 296 298 299 300 301 301 302 299 299 301 301 306 305 301 301
303 304 304 304 305 305 306 306 307 307 307 307 308 310 313 313 311 312 314 313 319 315 303 301 296 293 305 302 303 303 305 296 301 297 298 298 293 287 295 297 298 300 300 300 303 303 303 303 301 302 303 302 299 299
303 303 304 304 304 305 305 306 307 306 307 308 313 315 308 315 316 315 315 309 311 313 310 300 302 296 301 301 300 299 302 296 291 296 300 292 289 298 302 301 301 301 301 301 300 297 299 299 299 300 301 302 301 300
303 303 304 304 305 305 306 306 306 306 312 315 310 310 314 314 314 311 304 302 301 300 304 302 302 298 304 298 297 300 296 298 290 295 293 291 290 297 302 302 302 303 303 303 302 303 302 300 301 302 303 303 302 304
303 303 303 304 304 305 306 306 306 307 310 306 305 309 313 313 305 300 298 301 300 297 303 299 301 301 303 308 300 300 296 298 290 299 294 286 295 300 302 302 303 303 303 303 304 304 305 306 305 305 304 304 304 305
303 303 303 303 304 305 306 306 306 306 307 313 310 309 304 301 292 294 293 296 297 301 302 301 299 302 305 304 300 299 294 292 299 291 288 287 299 302 303 303 304 305 305 305 303 304 304 303 305 306 304 302 303 303
302 302 303 303 305 306 306 305 306 307 311 311 308 290 297 296 298 299 298 300 303 304 303 303 301 300 301 300 299 295 297 297 289 286 286 295 299 302 304 306 303 303 304 303 304 302 301 303 304 304 305 306 303 302
302 303 303 305 306 305 304 304 305 310 313 307 306 292 297 302 305 305 306 306 307 307 304 302 302 301 299 297 299 296 293 289 288 286 294 297 299 300 302 304 304 304 304 301 301 302 303 303 302 302 305 304 303 302
303 303 306 306 304 303 303 306 313 317 315 309 306 301 303 302 302 304 306 305 307 306 304 304 300 297 295 296 293 290 288 284 291 297 300 299 299 299 303 304 305 305 303 302 305 305 303 304 303 302 303 304 305 303
302 304 305 303 302 302 306 309 314 310 307 305 303 307 304 303 303 304 306 307 310 303 298 299 295 294 298 293 292 294 289 294 299 298 299 300 300 302 304 304 305 305 302 301 303 304 304 305 304 300 299 300 301 302
302 304 303 302 302 304 311 311 309 306 301 304 302 303 306 307 306 306 309 309 306 303 302 298 300 294 292 291 290 297 298 301 302 300 301 303 303 302 303 303 305 304 303 304 303 304 304 303 303 303 301 302 304 305
303 302 302 302 302 301 302 307 311 301 302 305 305 306 307 307 309 310 309 311 310 310 305 301 297 294 295 299 298 298 299 302 302 304 305 305 304 303 303 304 303 306 305 304 303 302 302 303 302 303 301 301 298 300
301 302 303 305 304 304 301 304 317 306 301 303 305 304 305 306 307 309 310 310 308 305 301 298 298 301 300 301 304 301 304 306 305 303 303 304 306 304 302 301 301 304 304 305 304 298 301 300 302 302 301 299 298 297
303 309 308 306 309 305 303 302 303 306 306 303 305 305 304 308 306 306 306 310 306 303 301 304 304 306 307 308 307 308 306 307 304 304 302 301 305 306 305 304 303 303 303 303 302 302 297 300 301 301 297 298 297 300
304 309 311 311 304 305 304 307 303 305 303 303 303 304 301 301 303 306 309 304 303 304 306 306 307 307 306 305 305 306 306 306 305 304 300 301 301 303 303 303 301 299 301 304 303 304 304 303 299 297 297 298 298 298
305 308 308 307 300 297 296 307 301 302 298 300 304 301 301 303 306 309 302 305 305 309 308 308 309 308 306 306 306 306 307 306 304 304 305 303 306 306 305 304 303 300 301 303 305 303 299 295 295 297 298 298 299 298
306 305 302 301 300 293 301 300 303 300 301 298 298 297 299 302 308 304 299 302 305 307 306 308 308 305 306 305 303 304 304 306 303 304 306 306 303 304 306 305 306 306 305 304 304 303 300 300 296 298 299 298 300 299
295 295 296 289 298 297 296 297 299 298 296 298 297 298 300 306 300 298 298 301 304 304 306 306 306 306 306 305 305 304 308 305 302 302 306 307 305 305 305 305 306 306 306 303 303 301 301 301 301 301 301 300 299 299
289 298 291 296 297 294 295 294 296 296 297 297 299 303 304 301 296 295 299 303 303 304 305 305 304 303 303 305 304 304 305 307 306 303 305 306 305 303 302 301 301 302 306 304 303 302 303 303 303 302 302 299 291 298
290 295 301 306 301 300 298 299 299 298 295 295 297 298 299 293 294 298 304 306 305 306 307 307 305 305 305 305 307 309 308 306 305 306 307 308 307 307 306 304 302 305 307 307 306 305 303 304 303 302 302 301 300 300
298 300 297 301 302 303 299 298 297 296 297 302 300 295 294 294 295 302 306 307 308 308 307 308 309 309 307 307 308 308 308 307 307 307 304 307 308 307 308 308 309 292 302 306 303 304 305 305 304 302 301 299 298 300
298 302 302 299 300 300 300 299 300 302 304 301 298 296 297 302 306 304 306 306 308 306 305 305 307 308 308 308 308 307 308 305 303 301 297 296 301 303 306 306 308 308 308 307 289 293 299 301 302 301 300 299 298 299
298 303 299 299 297 296 301 306 304 305 305 304 303 302 301 303 303 305 304 304 302 302 303 304 305 304 303 304 305 305 307 307 304 303 301 300 301 303 305 305 306 307 307 308 305 304 290 297 295 296 295 295 295 295
304 303 300 300 298 302 304 307 308 306 304 303 304 300 300 301 302 302 302 303 303 302 300 300 300 300 299 301 299 300 298 297 296 297 296 302 302 302 303 305 307 306 305 307 303 299 295 294 293 292 291 291 291 291
303 300 300 297 299 304 305 303 301 301 302 300 299 303 303 301 297 299 301 300 298 296 293 296 296 295 296 297 297 295 290 293 292 291 293 296 301 303 302 301 301 300 298 297 295 295 293 292 291 291 291 290 290 290
302 302 302 300 299 298 301 300 299 299 300 300 301 303 300 298 292 297 302 301 299 297 297 298 298 298 297 297 296 296 294 296 290 287 287 287 286 292 298 298 297 296 295 293 292 291 291 291 291 290 289 289 288 288
Wind_Speed
16 16 17 18 18 18 19 20 20 20 21 21 21 21 22 22 19 7 4 5 3 1 3 5 5 5 5 5 4 7 5 7 5 7 5 4 5 5 5 3 6 4 3 2 1 2 1 3 5 4 5 3 5 3
16 16 17 17 17 18 19 19 19 20 20 21 21 21 20 19 17 14 4 6 6 5 3 2 1 2 5 3 2 5 3 7 6 4 4 4 4 5 7 3 7 4 1 3 4 4 3 2 5 7 10 8 7 6
16 16 17 17 17 17 18 19 19 19 20 21 20 20 19 19 17 7 3 4 5 2 4 3 2 2 3 2 4 2 3 3 2 2 2 1 2 2 1 1 2 1 5 4 4 3 4 3 4 6 6 7 7 5
16 16 17 17 17 18 18 19 19 19 20 21 21 20 19 15 15 9 4 4 3 4 2 9 19 2 4 3 2 3 4 3 7 3 2 3 2 2 1 2 2 1 4 4 3 6 5 7 7 6 6 7 5 6
15 16 17 17 17 18 19 19 19 19 20 21 21 20 20 17 12 7 4 1 4 2 3 4 6 10 4 4 6 3 4 4 3 3 1 1 2 4 3 1 2 1 2 4 2 5 6 6 6 6 5 5 5 5
16 16 17 18 18 19 20 20 20 20 21 21 21 20 19 16 15 3 0 1 4 2 3 2 3 6 5 8 6 4 5 4 2 0 2 3 4 4 1 2 0 6 7 7 5 7 7 6 5 6 4 4 6 6
16 17 17 18 19 20 20 20 20 21 22 21 20 20 17 11 3 2 1 4 5 2 2 2 3 5 8 3 2 2 2 3 3 4 3 3 2 4 2 1 3 7 7 7 7 7 4 3 1 6 3 4 3 2
16 17 17 18 19 21 21 21 21 23 24 23 19 19 16 11 7 3 3 6 3 2 2 3 3 3 3 3 3 3 1 3 6 4 7 2 2 3 1 6 3 7 4 5 3 5 5 3 1 12 9 4 7 5
16 17 18 19 20 21 21 21 23 25 27 26 19 15 4 1 3 1 2 3 3 1 3 2 2 2 4 3 2 4 3 4 2 2 2 4 2 1 6 5 6 6 5 3 5 11 8 9 9 8 5 6 5 5
16 18 19 19 20 21 21 20 23 28 30 26 2 3 3 1 1 3 1 1 3 3 3 3 2 4 3 3 3 4 2 2 1 4 1 3 3 5 6 3 6 6 5 5 5 4 2 4 3 2 6 6 6 8
17 18 19 20 21 21 20 19 21 26 13 5 5 3 5 4 2 2 3 3 2 3 3 1 3 3 4 2 3 2 2 2 2 3 2 2 2 4 1 2 4 6 6 5 3 5 6 6 7 8 9 13 10 8
18 19 20 20 20 20 18 17 16 8 4 3 5 7 4 4 0 3 3 3 3 2 3 3 4 2 4 4 6 4 3 3 5 6 2 2 2 3 3 4 5 5 5 4 6 6 7 8 9 10 7 7 7 5
19 20 21 21 20 18 16 17 15 13 13 3 4 4 1 2 3 5 1 3 4 3 2 4 4 2 1 4 3 4 3 2 3 4 2 6 4 5 6 4 6 6 6 6 6 7 7 7 5 6 5 2 9 8
21 21 22 22 18 15 17 18 15 9 3 4 4 4 3 4 4 2 3 3 2 4 5 6 4 3 4 2 5 3 3 3 3 3 1 3 3 4 6 5 5 6 6 7 2 1 4 0 4 5 1 6 6 6
22 24 23 13 11 15 19 19 14 3 4 4 3 3 6 6 2 5 3 1 1 1 3 4 3 2 2 3 4 3 4 3 2 2 3 4 8 6 5 10 8 8 7 5 4 1 4 4 5 10 7 7 6 7
23 23 3 7 15 25 24 15 3 4 4 4 5 5 6 5 5 3 2 2 3 1 3 2 3 3 1 3 2 1 2 1 5 3 3 4 13 9 11 4 6 5 4 1 3 5 2 6 6 5 1 3 3 6
21 5 12 19 24 28 16 3 3 6 4 5 4 4 6 5 5 2 3 3 2 2 2 2 3 3 2 1 2 4 4 4 2 3 5 9 14 21 6 3 4 5 4 3 5 4 4 6 3 2 3 7 4 8
5 11 20 22 17 9 3 4 4 4 6 5 4 7 6 2 2 3 2 2 3 2 2 2 3 3 2 3 2 2 7 10 3 4 4 4 4 9 11 12 8 4 6 5 9 5 5 3 4 6 6 7 9 6
15 18 26 25 7 4 4 4 4 5 5 4 4 4 2 4 4 4 2 2 5 4 3 3 4 3 1 1 3 6 5 6 2 4 4 2 7 10 13 4 6 8 4 5 5 4 5 6 3 5 4 2 5 6
26 19 18 5 8 4 5 4 3 4 4 4 4 4 4 4 4 4 4 3 4 4 3 4 5 4 4 4 5 6 6 2 3 4 5 3 6 7 6 5 4 3 1 3 2 1 3 2 2 5 4 4 4 3
12 3 3 6 5 7 5 4 5 5 5 4 5 5 4 4 4 4 4 3 3 4 3 5 3 5 6 5 7 5 3 1 2 3 4 4 4 5 2 1 2 2 2 3 7 7 7 5 4 6 1 4 2 6
6 7 4 6 5 5 7 7 5 5 4 5 7 6 4 4 5 3 3 4 4 5 4 4 3 1 3 2 2 2 2 4 6 5 7 4 3 5 3 1 1 1 4 5 10 10 5 4 2 1 1 3 4 4
12 2 5 5 5 3 7 4 4 4 4 4 2 7 5 4 3 1 0 2 3 2 3 2 3 1 4 6 7 9 7 7 5 3 2 2 3 6 5 7 5 6 6 9 7 3 6 6 4 3 2 3 2 3
3 4 5 4 6 6 5 6 4 3 4 7 8 12 12 6 2 1 4 3 2 3 3 3 2 2 1 3 2 2 9 6 4 3 3 3 2 4 5 6 6 9 5 4 4 2 4 4 7 5 5 5 4 2
3 7 3 7 5 6 6 8 10 9 14 14 15 12 8 2 3 5 5 2 4 3 2 3 2 1 3 3 4 4 6 3 7 7 4 3 3 3 2 2 4 2 3 4 5 6 5 5 6 6 3 5 3 1
5 6 6 5 4 6 4 6 5 8 13 18 7 4 3 1 2 3 4 4 6 5 6 1 3 2 8 6 1 2 2 2 5 10 7 6 4 5 5 4 2 5 6 1 3 2 1 2 1 7 4 2 2 1
6 8 7 6 5 6 6 6 8 5 10 19 14 13 2 1 3 4 5 5 3 4 4 5 8 13 13 5 1 4 4 5 4 9 8 6 3 4 3 1 4 2 4 6 4 5 4 2 2 1 5 2 7 9
7 6 11 10 9 6 9 10 12 7 6 5 6 5 5 5 4 5 3 4 3 4 4 4 2 3 7 6 4 3 4 4 4 7 10 8 5 3 2 4 2 4 5 7 6 6 7 6 5 6 12 12 11 10
7 6 8 13 11 9 7 11 9 3 2 4 3 3 2 3 5 5 6 10 10 10 12 9 7 8 6 5 3 3 3 6 8 2 4 7 9 9 6 6 3 3 5 2 6 8 7 9 12 12 13 10 9 9
10 9 11 13 13 13 8 3 4 3 3 3 3 2 6 4 5 6 7 8 7 8 6 7 9 10 10 10 8 7 4 4 11 10 1 5 2 4 5 5 7 8 9 4 3 6 3 11 13 13 13 11 9 9
7 6 9 8 9 4 5 3 1 0 1 2 1 6 8 5 3 5 8 8 7 8 10 10 9 11 12 12 11 9 9 9 12 11 9 6 4 4 5 4 4 7 7 7 10 9 12 11 11 13 14 13 11 9
4 7 5 9 7 4 5 4 4 4 2 5 8 10 6 3 4 4 6 7 8 8 7 7 7 8 9 8 7 7 6 9 12 12 13 8 6 9 11 11 12 11 13 15 14 12 14 13 11 10 9 13 12 11
5 5 2 3 3 3 1 3 3 5 4 6 4 4 5 5 4 3 2 3 4 5 5 5 6 7 9 8 11 8 7 8 12 14 15 16 15 11 10 9 10 11 13 11 10 13 13 14 12 12 11 10 9 7
Wind_Direction
2 359 356 356 354 355 352 352 351 352 353 353 351 349 344 352 358 4 299 5 48 93 49 44 50 352 342 12 348 314 358 356 1 20 26 332 20 344 57 34 351 51 26 18 108 108 22 287 322 117 173 136 78 107
358 356 355 353 351 350 348 347 345 349 350 348 347 344 342 345 357 352 337 349 331 79 248 334 70 347 5 57 327 325 61 12 23 21 10 352 8 14 347 8 344 42 110 134 112 194 227 272 117 158 172 176 200 127
355 353 351 347 347 346 345 340 339 343 345 344 341 339 337 338 347 1 300 319 5 78 329 24 72 85 26 133 150 57 27 54 77 140 160 244 347 190 34 267 310 185 173 113 110 200 176 137 75 100 92 88 106 104
351 348 346 344 344 344 340 334 333 335 340 338 336 333 330 333 334 340 312 317 26 297 183 17 346 309 147 299 194 187 193 181 137 144 199 196 98 110 309 157 61 310 27 96 99 176 164 94 87 91 78 80 77 96
346 343 343 341 343 341 335 330 329 330 332 332 330 329 325 329 327 294 253 299 65 57 323 155 227 273 310 250 258 283 288 248 189 181 241 25 93 32 348 60 31 163 176 143 185 163 126 130 133 136 159 171 177 125
341 341 338 337 340 336 330 328 327 324 325 326 326 323 320 327 328 295 263 116 54 29 279 228 247 281 279 207 260 275 265 286 334 44 134 106 172 113 298 85 277 59 54 86 88 94 116 147 166 194 116 90 58 89
340 337 333 334 337 331 328 327 324 320 319 319 320 313 309 314 306 321 301 277 341 269 244 255 226 235 248 199 209 310 295 236 47 338 22 102 129 84 57 10 10 84 86 90 123 132 151 145 142 129 139 167 180 263
336 333 329 331 332 329 329 326 321 319 316 315 313 302 297 291 274 284 233 218 312 274 261 280 338 34 228 307 327 215 299 80 29 68 312 98 36 75 66 245 175 107 148 113 88 98 129 143 345 53 66 44 43 356
331 329 327 330 330 330 329 325 323 321 316 311 306 297 288 184 255 241 233 247 213 239 302 339 271 296 337 318 314 330 72 63 93 164 259 61 331 169 218 211 149 161 112 15 101 80 54 66 66 30 20 12 321 296
326 327 325 328 329 329 327 323 328 323 315 310 300 237 219 279 247 313 11 260 192 221 233 260 15 343 348 316 327 352 24 148 162 226 290 92 253 237 260 87 98 99 101 82 58 29 52 107 126 155 247 262 222 222
324 322 323 326 327 327 322 322 330 325 312 348 343 332 301 286 281 227 254 198 336 271 189 354 30 340 326 338 289 245 192 251 55 250 142 191 273 227 166 165 194 150 125 137 160 163 200 173 190 222 231 231 221 232
319 319 322 323 323 322 315 318 331 331 337 332 289 281 262 262 10 299 310 262 203 302 29 357 297 295 322 50 20 297 217 175 241 173 137 208 249 154 194 178 113 115 142 224 243 233 227 216 211 201 201 209 226 164
319 320 320 320 320 313 306 313 314 284 286 201 214 237 86 261 27 239 292 7 330 342 320 319 320 315 83 68 215 255 277 275 45 39 208 227 182 182 172 168 166 200 212 223 233 217 229 247 215 152 225 179 51 73
318 319 319 319 311 302 307 310 312 323 279 252 223 310 191 238 236 79 279 281 307 19 344 302 297 269 271 233 237 235 280 82 106 201 241 346 296 196 174 177 177 213 238 260 315 75 299 95 257 182 337 99 101 67
319 319 316 307 313 313 318 311 302 240 266 272 297 252 226 251 300 261 205 299 172 160 293 320 310 272 33 3 239 3 290 39 154 248 175 231 230 248 236 182 203 220 215 202 196 191 266 349 38 37 58 100 133 135
321 310 290 302 332 335 322 312 224 218 242 243 240 269 295 307 323 342 266 242 136 116 296 99 281 317 218 168 140 211 76 212 277 22 355 9 306 287 278 182 210 190 162 33 193 198 142 74 80 126 57 299 205 148
314 237 354 354 342 320 302 233 241 226 251 246 243 242 255 245 233 247 307 69 71 41 307 247 290 315 330 147 214 144 214 233 222 234 204 152 250 275 207 223 271 181 139 221 265 129 98 104 49 317 284 264 259 172
256 312 319 323 338 290 231 217 252 259 251 244 265 267 279 278 311 299 218 129 147 175 333 336 318 269 316 290 325 280 314 310 218 213 255 315 54 53 331 342 310 195 198 85 99 87 38 60 316 293 227 255 274 141
291 292 298 299 293 308 280 246 213 268 264 275 269 285 265 271 262 238 196 144 87 67 63 63 274 227 214 174 239 275 256 271 293 281 255 211 166 158 228 303 321 352 92 163 128 162 198 247 155 284 280 296 137 131
292 288 273 267 188 263 265 248 206 249 274 286 302 293 281 253 261 258 186 179 125 136 172 216 228 209 203 242 233 236 235 195 233 273 290 275 176 181 193 221 244 310 276 67 345 285 282 274 257 255 267 270 119 137
304 214 233 173 210 219 279 282 243 236 244 257 294 294 271 294 268 252 252 158 121 165 222 220 255 221 198 219 258 212 254 139 274 217 245 284 189 173 154 239 217 347 90 94 240 253 246 232 250 272 110 111 79 124
261 305 295 206 252 247 229 214 254 316 298 282 288 265 248 257 269 247 237 195 199 204 189 233 227 252 295 283 155 82 34 310 270 263 267 212 249 134 155 217 97 265 231 220 251 238 206 208 184 134 290 118 127 149
292 223 236 235 268 282 264 274 258 226 261 263 262 254 249 256 267 136 204 260 261 194 92 98 134 96 50 33 25 2 298 236 254 267 33 275 134 153 168 180 197 224 249 254 238 201 163 172 185 195 257 226 225 166
248 255 252 260 208 246 263 241 220 251 267 264 268 271 272 268 277 274 261 228 208 160 140 126 22 322 65 6 40 228 268 246 247 226 208 250 248 225 192 198 207 232 204 209 186 210 182 197 160 208 222 216 224 162
293 271 175 263 266 276 252 270 264 251 259 260 264 269 285 293 281 259 267 333 89 87 172 178 252 50 283 254 241 238 219 316 355 301 200 231 255 254 228 236 248 243 215 206 213 206 200 212 202 219 173 107 101 178
248 242 193 245 230 225 239 278 313 330 327 320 309 311 313 104 309 279 38 24 66 45 355 324 203 234 290 276 150 128 248 274 358 315 261 209 203 198 216 239 354 329 320 163 99 46 287 297 5 259 104 117 139 5
241 251 229 227 258 291 294 300 304 323 295 285 294 290 231 171 2 53 20 7 25 3 317 330 24 4 288 149 120 22 341 303 306 309 313 285 70 29 329 107 175 242 272 327 316 270 255 239 117 89 170 114 70 84
247 257 245 259 276 273 272 276 277 289 271 315 339 349 26 14 353 339 54 276 218 248 309 355 99 221 34 45 45 326 292 314 29 20 3 321 359 30 38 98 100 300 299 317 34 7 298 226 225 69 81 89 80 82
245 250 271 280 286 289 284 280 283 290 33 9 51 57 10 5 9 12 14 8 11 36 29 5 6 7 25 25 48 352 334 4 336 27 77 296 298 286 350 330 308 251 270 158 86 57 22 71 81 82 81 79 74 67
247 241 258 268 274 282 286 319 53 66 72 84 105 4 267 91 35 3 18 22 24 27 8 356 13 4 359 349 342 345 48 10 35 355 160 213 240 264 292 316 307 295 266 182 99 104 153 79 74 72 70 65 60 56
271 290 293 290 297 336 55 55 79 4 354 354 162 246 257 129 107 34 32 6 347 22 20 15 18 18 1 11 15 1 1 10 357 360 353 2 18 352 327 295 9 7 32 101 94 92 85 78 80 82 81 80 78 77
266 271 273 292 291 318 36 356 317 273 253 278 271 268 99 119 77 43 22 16 20 23 28 27 26 27 20 19 53 58 45 30 14 3 7 358 360 58 48 53 56 59 66 78 80 78 77 80 82 85 89 92 90 89
241 245 253 330 339 334 347 343 302 274 236 241 251 80 51 74 92 52 76 21 43 24 15 49 39 32 18 34 38 21 29 55 51 18 14 22 24 39 64 66 71 74 74 76 86 92 91 98 96 95 95 95 100 97